Location: Unspecified
(0.0000°N, 0.0000°E)
Time: 10:05:56
(UTC+00:00)

Hubble Space Telescope - Pass Details

Date: 13 February 2026
Orbit: 478 x 480 km, 28.5° (Epoch: 6 February)

Event Time Altitude Azimuth Distance (km) Brightness Sun altitude
Exits shadow 05:04:30 32° 323° (NW) 836 1.3 -16.9°
Maximum altitude 05:04:42 32° 330° (NNW) 832 1.4 -16.9°
Drops below altitude 10° 05:08:06 10° 35° (NE) 1,633 3.5 -16.1°
Sets 05:10:26 0° 45° (NE) 2,508 4.6 -15.5°
